Regional Weather Roundup
Issued by NWS

Home | Current Version | Previous Version | Text Only | Print | Product List | Glossary On
Versions: 1 2 3 4 5 6 7 8 9 10 11 12 13 14 15 16 17 18 19 20 21 22 23 24 25 26 27 28 29 30 31 32 33 34 35 36 37 38 39 40 41 42 43 44 45 46 47 48 49 50
000
ASUS43 KLOT 250404
RWRIL

ILLINOIS REGIONAL WEATHER ROUNDUP
NATIONAL WEATHER SERVICE CHICAGO/ROMEOVILLE IL
1000 PM CST FRI NOV 24 2017

NOTE: "FAIR" INDICATES FEW OR NO CLOUDS BELOW 12,000 FEET WITH NO
SIGNIFICANT WEATHER AND/OR OBSTRUCTIONS TO VISIBILITY.

* THESE STATIONS ARE NOT UNDER NWS QUALITY CONTROL. THEY ALSO MAY NOT
  REPORT WEATHER SUCH AS PRECIPITATION OR FOG.

ILZ001-002-007-009-015-016-024-250500-
NORTHWEST ILLINOIS

CITY           SKY/WX    TMP DP  RH WIND       PRES   REMARKS
MOLINE         PTCLDY    55  42  61 NW21G32   29.66R
STERLING*        N/A     52  43  71 MISG        N/A
$$

ILZ003-004-008-010-011-017-018-250500-
NORTH CENTRAL ILLINOIS

CITY           SKY/WX    TMP DP  RH WIND       PRES   REMARKS
ROCKFORD       CLOUDY    55  41  59 NW15      29.60R
FREEPORT*      CLOUDY    54  42  62 NW16G22   29.61R
DE KALB*       CLOUDY    53  42  67 W16       29.56R
$$

ILZ005-006-012>014-019>023-250500-
NORTHEAST ILLINOIS

CITY           SKY/WX    TMP DP  RH WIND       PRES   REMARKS
CHICAGO-OHARE  CLOUDY    51  40  65 SW7       29.51R
CHICAGO-MIDWAY NOT AVBL
AURORA         CLOUDY    46  40  79 W7        29.56R
LANSING*       CLOUDY    49  40  72 SW9       29.56R
JOLIET*        CLOUDY    53  42  65 SW7       29.55R
WAUKEGAN       CLOUDY    54  41  61 VRB5      29.50R
DUPAGE AIRPORT CLOUDY    50  42  74 W7        29.53R
KANKAKEE*      PTCLDY    49  37  63 SW12G18   29.58S
WHEELING       CLOUDY    51  42  71 S3        29.53R
NORTHERLY ISL    N/A     52  38  58 SW2         N/A
$$

LMZ740>746-250500-
SOUTHERN LAKE MICHIGAN

STATION/POSITION SKY/WX   TEMP    WIND        PRES    VSBY  WAVE
                          AIR SEA DIR/SP/G                  HT/PER
                          (F)     (DEG/KT/KT) (MB)    (MI)  (FT/S)
SOUTHERN BUOY              50 47  210/ 17/ 21  997.8          5/ 6
HARRISON CRIB              54     220/ 14/ 16   N/A
BURNHAM HARBOR             52     160/  5/ 10   N/A
CALUMET HARBOR             52     210/  7/ 11  999.8R
BURNS HARBOR               53     200/ 17/ 27 1001.0R
MICHIGAN CITY              53     190/ 16/ 21   N/A
$$

ILZ025>027-034>036-040-047-049-050-058-095>099-250500-
WEST-CENTRAL ILLINOIS

CITY           SKY/WX    TMP DP  RH WIND       PRES   REMARKS
QUINCY         PTCLDY    54  41  61 W14G20    29.72R
GALESBURG*     CLOUDY    54  43  66 W13G18    29.68R
MACOMB*        PTCLDY    49  41  73 W16       29.70R
JACKSONVILLE*  PTCLDY    51  38  60 MISG      29.69R
$$

ILZ028>032-037-038-041>044-048-051>054-059>061-250500-
CENTRAL ILLINOIS

CITY           SKY/WX    TMP DP  RH WIND       PRES   REMARKS
BLOOMINGTON    CLOUDY    50  39  66 W12       29.63R
DECATUR        CLOUDY    53  38  56 SW17      29.66R
PEORIA         CLEAR     55  42  61 W8        29.64R
LACON*         MOCLDY    55  42  62 W6        29.61R
LINCOLN*       CLOUDY    55  41  59 W3        29.65R
SPRINGFIELD    CLOUDY    51  39  63 W10       29.68R
TAYLORVILLE    NOT AVBL
$$

ILZ033-039-045-046-055>057-062-063-250500-
EAST-CENTRAL ILLINOIS

CITY           SKY/WX    TMP DP  RH WIND       PRES   REMARKS
CHAMPAIGN      PTCLDY    51  38  60 SW17      29.65R
DANVILLE*      CLOUDY    50  36  57 SW18G26   29.60R
MATTOON        PTCLDY    51  38  60 S13G22    29.65S
$$

ILZ079-100>102-250500-
SOUTHWEST ILLINOIS

CITY           SKY/WX    TMP DP  RH WIND       PRES   REMARKS
BELLEVILLE     CLOUDY    56  37  48 S9        29.69R
CAHOKIA*       CLOUDY    62  34  35 SW7G17    29.70R
$$

ILZ064>066-069>071-074>076-080>082-084>086-088>090-092>094-250500-
SOUTH-CENTRAL ILLINOIS

CITY           SKY/WX    TMP DP  RH WIND       PRES   REMARKS
CARBONDALE     CLOUDY    55  36  48 S18       29.76S
CAIRO*         CLOUDY    53  35  50 S9        29.83R
EFFINGHAM*     MOCLDY    55  38  54 S15       29.70F
MT. VERNON     CLOUDY    54  37  52 SW14      29.74R
CENTRALIA*     MOCLDY    54  39  58 S13       29.71S
SALEM*         MOCLDY    55  37  49 S16       29.70S
$$

ILZ067-068-072-073-078-083-087-091-250500-
SOUTHEAST ILLINOIS

CITY           SKY/WX    TMP DP  RH WIND       PRES   REMARKS
LAWRENCEVILLE  CLOUDY    52  35  52 MISG      29.74S
FAIRFIELD*     MOCLDY    55  36  49 S6        29.73S
HARRISBURG*    CLOUDY    55  35  47 SW15G21   29.79S
ROBINSON*      MOCLDY    52  35  51 SW17      29.71F
CARMI*         MOCLDY    55  35  45 SW15      29.76S
$$

ABBREVIATIONS USED IN REMARKS
   TC - TEMPERATURE IN CELSIUS
  WCI - WIND CHILL INDEX
   HX - HEAT INDEX
  VSB - VISIBILITY
$$




USA.gov is the U.S. government's official web portal to all federal, state and local government web resources and services.